Total_Precipitation_Accumulation
0.00 0.00 0.00 0.00 0.00 0.00 0.00 0.00 0.00 0.00 0.00 0.00 0.00 0.00 0.01 0.03 0.09 0.19 0.41 0.61 0.80 0.89 0.88 0.84 0.76 0.76 0.63 0.50 0.49 0.43 0.46 0.67 0.86 0.81 0.82 0.86 0.80 0.69 0.53 0.43 0.41 0.45 0.46 0.50
0.00 0.00 0.00 0.00 0.00 0.00 0.00 0.00 0.00 0.00 0.00 0.00 0.00 0.00 0.02 0.06 0.07 0.08 0.18 0.33 0.51 0.83 0.99 1.02 1.04 0.96 0.79 0.79 0.88 0.99 1.26 1.50 1.38 1.41 1.50 1.42 1.30 1.01 0.83 0.70 0.61 0.60 0.63 0.66
0.00 0.00 0.00 0.00 0.00 0.00 0.00 0.00 0.00 0.00 0.00 0.00 0.00 0.00 0.02 0.09 0.15 0.19 0.19 0.22 0.27 0.40 0.54 0.68 0.82 0.93 1.10 1.31 1.49 1.70 1.89 1.90 1.78 1.84 1.85 1.56 1.39 1.18 1.06 0.99 0.84 0.78 0.82 0.85
0.00 0.00 0.00 0.00 0.00 0.00 0.00 0.00 0.00 0.00 0.00 0.00 0.00 0.00 0.01 0.04 0.09 0.16 0.23 0.28 0.27 0.29 0.37 0.56 0.79 1.08 1.44 1.73 2.06 2.31 2.30 2.22 2.09 2.10 2.01 1.86 1.66 1.44 1.30 1.21 1.01 0.92 0.91 0.94
0.01 0.00 0.00 0.00 0.00 0.00 0.00 0.00 0.00 0.00 0.00 0.00 0.00 0.00 0.00 0.01 0.02 0.06 0.15 0.24 0.30 0.38 0.47 0.65 0.88 1.15 1.37 1.68 1.98 2.21 2.36 2.36 2.21 2.11 1.99 1.90 1.70 1.49 1.33 1.16 1.06 1.05 1.09 1.03
0.03 0.02 0.01 0.01 0.00 0.00 0.00 0.00 0.00 0.00 0.00 0.00 0.00 0.00 0.00 0.01 0.02 0.06 0.17 0.27 0.39 0.57 0.68 0.83 1.04 1.23 1.33 1.49 1.75 1.93 2.04 2.02 1.95 1.86 1.79 1.78 1.72 1.67 1.50 1.30 1.25 1.27 1.20 1.07
0.05 0.03 0.04 0.03 0.02 0.01 0.00 0.01 0.04 0.02 0.00 0.00 0.00 0.00 0.05 0.06 0.06 0.11 0.21 0.38 0.57 0.78 0.91 1.03 1.23 1.38 1.44 1.42 1.48 1.58 1.61 1.59 1.49 1.40 1.32 1.32 1.33 1.35 1.30 1.25 1.25 1.27 1.22 1.15
0.12 0.04 0.06 0.08 0.06 0.04 0.04 0.06 0.16 0.12 0.03 0.01 0.01 0.05 0.15 0.16 0.18 0.23 0.29 0.40 0.59 0.75 0.87 1.04 1.13 1.07 1.01 1.03 1.10 1.15 1.14 1.09 1.01 1.01 1.01 1.04 1.12 1.17 1.15 1.16 1.19 1.22 1.23 1.19
0.06 0.04 0.06 0.08 0.08 0.08 0.12 0.16 0.14 0.23 0.17 0.14 0.05 0.10 0.19 0.21 0.32 0.41 0.49 0.55 0.59 0.63 0.63 0.66 0.68 0.73 0.80 0.84 0.85 0.85 0.87 0.86 0.79 0.78 0.83 0.88 0.92 0.98 0.99 1.03 1.05 1.05 1.03 0.97
0.02 0.02 0.03 0.03 0.05 0.06 0.12 0.22 0.33 0.47 0.44 0.32 0.14 0.15 0.31 0.45 0.49 0.55 0.71 0.92 0.80 0.58 0.52 0.51 0.52 0.58 0.62 0.65 0.70 0.73 0.81 0.88 0.84 0.77 0.76 0.74 0.75 0.76 0.83 0.87 0.84 0.81 0.83 0.78
0.01 0.03 0.04 0.05 0.07 0.11 0.20 0.28 0.38 0.48 0.49 0.44 0.35 0.33 0.30 0.57 0.64 0.63 0.68 0.73 0.65 0.46 0.34 0.30 0.31 0.36 0.44 0.56 0.64 0.66 0.76 0.82 0.77 0.67 0.66 0.67 0.66 0.66 0.65 0.65 0.61 0.59 0.61 0.60
0.02 0.03 0.03 0.05 0.07 0.07 0.15 0.28 0.39 0.48 0.47 0.47 0.45 0.44 0.27 0.42 0.48 0.49 0.56 0.47 0.39 0.28 0.21 0.19 0.20 0.24 0.32 0.41 0.46 0.53 0.62 0.71 0.72 0.67 0.66 0.66 0.66 0.63 0.58 0.54 0.47 0.40 0.40 0.38
0.00 0.01 0.02 0.06 0.12 0.11 0.12 0.15 0.22 0.31 0.37 0.37 0.41 0.46 0.30 0.30 0.38 0.40 0.37 0.31 0.24 0.19 0.16 0.15 0.16 0.20 0.23 0.28 0.34 0.41 0.46 0.54 0.61 0.62 0.66 0.68 0.64 0.57 0.51 0.47 0.42 0.36 0.30 0.25
0.00 0.00 0.02 0.06 0.08 0.07 0.09 0.13 0.17 0.24 0.33 0.29 0.25 0.29 0.34 0.33 0.33 0.32 0.26 0.22 0.19 0.16 0.15 0.13 0.13 0.15 0.15 0.18 0.24 0.28 0.32 0.38 0.45 0.53 0.64 0.72 0.74 0.68 0.59 0.46 0.38 0.31 0.22 0.16
0.00 0.01 0.02 0.02 0.02 0.02 0.04 0.07 0.11 0.17 0.20 0.24 0.21 0.25 0.33 0.33 0.30 0.25 0.22 0.21 0.21 0.19 0.14 0.11 0.10 0.09 0.10 0.12 0.16 0.23 0.28 0.32 0.39 0.51 0.69 0.77 0.71 0.61 0.54 0.44 0.33 0.25 0.16 0.11
0.00 0.01 0.03 0.05 0.06 0.09 0.12 0.13 0.11 0.11 0.11 0.14 0.18 0.25 0.26 0.25 0.25 0.25 0.23 0.20 0.19 0.15 0.12 0.10 0.09 0.08 0.07 0.07 0.08 0.14 0.22 0.26 0.33 0.42 0.51 0.54 0.54 0.52 0.43 0.37 0.27 0.18 0.13 0.09
0.01 0.01 0.02 0.05 0.12 0.16 0.17 0.14 0.21 0.24 0.19 0.19 0.29 0.31 0.24 0.22 0.18 0.14 0.12 0.12 0.11 0.10 0.08 0.08 0.08 0.07 0.06 0.06 0.07 0.12 0.16 0.19 0.26 0.31 0.33 0.39 0.46 0.46 0.36 0.26 0.21 0.17 0.12 0.07
0.01 0.01 0.03 0.06 0.16 0.22 0.15 0.04 0.05 0.10 0.12 0.13 0.17 0.17 0.14 0.12 0.08 0.04 0.03 0.04 0.04 0.04 0.05 0.05 0.05 0.05 0.04 0.05 0.09 0.12 0.15 0.17 0.22 0.28 0.33 0.36 0.42 0.41 0.34 0.28 0.23 0.17 0.11 0.08
0.00 0.00 0.02 0.05 0.10 0.12 0.08 0.03 0.01 0.04 0.05 0.01 0.03 0.03 0.03 0.01 0.03 0.06 0.03 0.01 0.02 0.03 0.04 0.03 0.03 0.04 0.07 0.07 0.09 0.12 0.17 0.19 0.22 0.25 0.32 0.39 0.41 0.35 0.29 0.26 0.21 0.17 0.14 0.09
0.00 0.00 0.01 0.03 0.08 0.10 0.05 0.01 0.00 0.02 0.07 0.01 0.01 0.02 0.02 0.04 0.11 0.15 0.05 0.00 0.01 0.03 0.07 0.07 0.06 0.09 0.13 0.12 0.11 0.14 0.18 0.22 0.27 0.29 0.35 0.40 0.38 0.32 0.27 0.23 0.19 0.16 0.15 0.12
0.00 0.00 0.00 0.01 0.04 0.04 0.01 0.01 0.01 0.05 0.10 0.01 0.00 0.01 0.01 0.04 0.09 0.07 0.01 0.00 0.01 0.02 0.07 0.11 0.14 0.21 0.20 0.16 0.15 0.18 0.20 0.22 0.26 0.29 0.33 0.39 0.40 0.29 0.23 0.20 0.19 0.16 0.14 0.14
0.00 0.00 0.00 0.01 0.03 0.02 0.00 0.00 0.01 0.02 0.01 0.00 0.00 0.00 0.00 0.01 0.01 0.02 0.02 0.01 0.02 0.03 0.06 0.13 0.22 0.26 0.22 0.21 0.25 0.27 0.26 0.24 0.25 0.28 0.29 0.34 0.35 0.25 0.20 0.21 0.20 0.17 0.17 0.16
0.00 0.00 0.00 0.00 0.00 0.00 0.00 0.00 0.00 0.00 0.00 0.00 0.00 0.00 0.00 0.00 0.01 0.01 0.01 0.03 0.06 0.07 0.08 0.09 0.15 0.18 0.18 0.21 0.27 0.34 0.36 0.28 0.26 0.28 0.31 0.31 0.30 0.29 0.24 0.22 0.21 0.18 0.16 0.17
0.00 0.00 0.00 0.00 0.00 0.00 0.00 0.00 0.00 0.00 0.00 0.00 0.00 0.00 0.00 0.00 0.00 0.00 0.00 0.01 0.04 0.06 0.04 0.03 0.05 0.10 0.14 0.16 0.20 0.26 0.30 0.29 0.27 0.28 0.32 0.34 0.33 0.33 0.30 0.27 0.26 0.24 0.21 0.19
0.00 0.00 0.00 0.01 0.01 0.00 0.00 0.00 0.00 0.00 0.00 0.00 0.00 0.00 0.00 0.00 0.00 0.00 0.00 0.00 0.01 0.03 0.02 0.03 0.04 0.08 0.10 0.12 0.11 0.11 0.13 0.18 0.23 0.26 0.33 0.38 0.37 0.35 0.32 0.27 0.25 0.25 0.24 0.22
0.01 0.01 0.01 0.02 0.02 0.02 0.01 0.00 0.00 0.00 0.00 0.00 0.00 0.00 0.00 0.01 0.00 0.00 0.00 0.00 0.00 0.01 0.01 0.01 0.02 0.03 0.04 0.04 0.05 0.06 0.08 0.12 0.19 0.24 0.24 0.26 0.27 0.27 0.26 0.23 0.18 0.13 0.12 0.11